{"data":{"norad_id":53258,"intl_designator":"2022-086S","name":"STARLINK-4127","alt_names":[],"object_type":"PAYLOAD","status":"ACTIVE","operator":null,"country":"US","launch_date":"2022-07-24","launch_site_code":"AFETR","launch_vehicle":null,"mission":null,"orbit_class":"UNKNOWN","rcs_meters":null,"size_class":null,"mass_kg":null,"dimensions":null,"purposes":["comms"],"wikipedia_slug":null,"has_3d_model":false,"image_url":null,"decayed_at":null,"tle_current":{"epoch":"2026-05-25T04:40:33.076992Z","epoch_age_seconds":61246,"freshness":"FRESH","line1":"1 53258U 22086S   26145.19482728 -.00000761  00000+0 -29723-4 0  9992","line2":"2 53258  53.2129 210.6748 0001136  87.8507 272.2615 15.08838283212614","mean_motion":15.08838283,"eccentricity":0.0001136,"inclination_deg":53.2129,"raan_deg":210.6748,"arg_perigee_deg":87.8507,"mean_anomaly_deg":272.2615,"bstar":-2.9723e-5,"rev_number":21261,"period_min":95.437663282036,"perigee_km":538.9627653428,"apogee_km":540.53450895956,"semimajor_km":6917.8856371512,"source":"CELESTRAK","updated_at":"2026-05-25T13:38:17.363432Z"}}}